Wind_Speed
8 9 10 10 10 10 10 10 10 11 11 11 11 10 10 10 9 9 8 8 8 7 7 8 7 7 7 7 7 8 7 7 7 6 6 5 5 5 4 4 4 4 3 4 5 5 5 5 5 4 3 3 4 5 6 7 8 8 7 7 7 7 8 9 9 9 9 10 10 9 7 4 2 0 1 3 3 3 3 3 3 3 4 4 5
10 9 9 10 10 9 9 9 9 9 10 10 11 10 11 11 11 10 10 9 9 9 9 9 9 9 9 8 8 8 8 8 8 7 7 6 6 5 5 5 4 4 4 4 5 5 5 5 5 5 4 3 3 4 5 6 7 7 8 8 7 7 7 8 9 10 10 11 11 9 8 5 4 3 2 3 2 2 2 2 1 2 4 5 5
11 8 7 8 9 9 9 9 9 9 9 9 9 9 10 11 11 11 11 11 10 11 11 10 10 9 8 8 8 9 9 9 9 8 8 7 6 6 6 6 5 4 5 5 5 5 5 5 5 5 4 3 3 3 4 5 6 7 7 8 8 8 9 9 9 10 10 12 11 9 10 9 6 5 3 3 2 1 1 1 2 3 4 5 6
10 8 7 8 9 9 9 9 9 9 9 9 9 9 9 9 10 10 10 10 9 10 10 10 9 8 8 8 8 8 9 9 9 9 8 6 6 5 5 6 5 5 6 6 5 5 5 5 5 5 3 3 3 3 4 5 6 7 8 7 8 9 10 10 10 10 10 12 11 8 10 10 8 7 5 5 5 2 1 1 3 4 5 6 7
10 9 8 10 11 10 10 10 9 9 9 8 8 9 9 9 10 9 9 8 8 8 8 8 8 8 7 8 8 8 8 7 6 5 4 4 4 4 4 5 5 5 6 6 5 5 5 5 5 5 3 3 3 3 4 5 5 6 7 8 8 8 9 10 11 12 12 12 10 7 8 11 10 9 8 7 6 4 2 2 3 4 5 6 7
11 11 9 11 12 12 12 11 11 10 9 9 9 9 9 8 9 9 8 8 8 8 7 7 7 7 7 8 8 8 6 4 2 1 1 1 2 2 3 3 4 4 5 5 4 4 4 5 4 3 2 2 2 3 3 4 5 5 7 8 8 8 8 9 10 11 12 12 11 7 6 9 10 9 8 7 7 6 3 3 3 4 5 6 6
14 13 11 11 13 14 13 12 12 11 10 9 9 9 9 8 8 8 9 8 8 8 7 7 7 7 6 7 6 4 3 2 1 1 1 1 1 2 2 2 3 3 4 4 3 1 2 3 2 2 2 2 2 2 3 3 4 5 5 6 7 8 8 9 9 10 10 11 11 8 5 6 8 8 7 7 8 7 5 5 6 6 7 7 7
16 15 12 12 13 14 13 13 12 11 11 10 10 10 9 9 10 9 9 9 9 8 8 8 7 7 7 7 4 3 3 3 4 3 2 1 1 1 1 1 1 2 3 5 3 2 1 1 1 2 3 3 4 4 4 4 5 5 5 6 7 8 9 10 10 10 10 10 10 8 5 4 6 7 7 6 7 8 8 8 9 8 8 8 8
17 14 13 13 13 15 13 14 13 12 11 10 10 10 10 10 10 10 10 9 9 9 10 9 8 8 8 7 5 5 6 5 6 4 3 2 1 1 0 0 1 1 2 3 3 3 4 3 3 4 5 6 6 7 7 7 7 7 8 8 9 9 10 11 11 11 11 11 10 9 7 4 4 6 7 6 7 8 9 10 11 11 11 10 9
17 15 15 14 14 15 13 14 13 12 11 10 10 10 10 9 9 9 9 8 8 9 10 10 10 9 8 6 5 6 5 5 5 4 3 3 3 2 2 2 2 1 1 2 3 4 5 5 5 6 7 8 8 8 9 9 10 10 10 10 10 10 11 11 12 12 12 12 12 10 8 6 6 6 6 7 7 8 10 11 13 14 13 11 10
19 17 17 16 16 16 15 14 13 12 11 11 11 11 10 9 9 9 8 8 8 8 8 8 8 7 6 5 5 5 5 5 4 4 4 4 4 3 4 4 3 3 2 2 3 4 4 5 6 7 8 8 9 9 9 10 10 11 11 12 12 11 11 11 12 12 12 12 12 11 9 7 7 7 7 8 9 11 13 14 15 14 13 12 11
20 19 17 18 18 17 16 14 13 14 13 13 12 12 12 11 10 9 9 8 8 7 7 7 6 5 4 4 4 4 4 4 4 4 4 4 3 3 4 4 4 4 4 3 3 3 4 4 6 7 7 8 8 9 9 10 10 11 12 12 12 12 12 12 12 11 11 11 11 11 10 8 7 8 8 9 10 12 14 15 15 15 14 14 12
20 19 18 18 19 18 17 15 15 15 14 14 13 13 12 11 10 9 9 8 8 7 6 5 5 4 4 4 4 4 4 4 4 4 5 5 5 5 5 5 5 5 5 5 4 4 4 4 5 6 7 7 8 8 9 9 10 10 11 11 12 12 13 12 12 12 11 11 10 10 10 9 8 8 9 10 11 12 13 14 15 15 15 14 12
22 21 19 19 20 19 19 18 17 16 16 15 14 13 11 10 9 9 9 8 8 7 6 5 5 5 4 5 5 5 5 6 5 5 6 6 7 7 6 6 7 7 7 7 7 7 7 7 7 7 8 8 9 9 9 10 10 10 10 11 11 11 12 12 13 13 13 12 11 10 10 10 10 9 9 10 11 11 13 15 16 15 15 14 13
23 22 20 20 20 20 20 20 19 18 17 15 14 12 11 10 9 9 8 8 8 7 7 6 6 5 5 5 5 6 6 7 7 7 7 7 7 7 7 7 7 8 8 9 9 9 9 9 10 10 10 11 11 11 11 11 11 11 11 11 11 11 11 12 12 12 12 12 12 11 11 11 11 11 11 11 11 12 12 15 16 16 16 16 16
22 20 20 21 20 20 20 19 18 17 17 15 14 13 11 10 10 10 9 9 9 8 8 7 7 7 7 6 6 7 7 7 7 7 7 7 7 7 7 7 7 8 8 8 9 9 9 9 10 10 11 11 11 11 11 12 12 12 12 11 11 11 11 10 10 10 10 10 10 10 11 11 11 11 12 13 13 13 13 14 15 16 17 18 17
20 19 20 21 21 20 19 19 18 17 17 16 14 13 12 11 11 11 11 11 11 10 10 9 9 8 8 8 8 8 7 7 7 7 7 7 7 7 7 7 7 7 7 7 7 7 8 8 9 9 10 10 10 10 10 11 12 12 12 12 12 11 11 10 9 8 8 7 8 8 9 10 10 11 12 13 14 14 14 14 14 15 16 17 17
20 20 19 20 21 21 20 20 18 18 17 17 15 13 12 11 11 11 12 12 12 12 11 11 11 10 10 10 9 9 9 8 8 8 8 7 7 7 7 7 7 7 7 7 7 7 7 8 8 8 9 9 9 9 9 10 10 11 11 11 11 10 10 9 9 8 8 7 7 7 8 10 10 11 12 13 13 13 13 13 13 14 15 15 16
21 20 19 20 22 22 22 21 20 19 18 17 15 14 14 13 13 12 13 13 13 13 13 13 13 13 13 12 12 11 11 10 10 9 9 8 8 8 7 7 7 7 7 8 9 9 9 10 10 10 10 11 11 10 10 10 10 10 11 10 10 10 10 10 10 10 9 8 8 8 9 11 11 11 11 12 13 12 12 13 14 14 16 16 16
21 21 20 21 23 23 23 22 21 20 19 17 16 16 15 15 15 14 14 15 15 16 16 16 16 16 16 15 15 14 13 12 11 10 10 9 9 9 8 9 8 8 9 10 11 11 11 12 12 12 12 13 13 12 13 12 12 12 12 11 11 11 12 12 12 11 10 9 8 8 9 10 11 11 12 14 13 12 13 14 16 17 18 19 18
23 23 22 22 23 24 24 23 22 21 20 18 18 17 16 17 17 17 17 18 18 19 19 19 18 17 16 16 15 14 13 12 11 10 10 10 10 9 9 9 9 10 11 11 12 12 12 12 13 13 14 14 14 14 14 14 14 14 14 13 13 13 13 13 13 12 12 11 10 9 9 10 10 12 13 14 13 13 14 15 17 19 20 20 20
26 25 24 24 25 25 24 24 24 23 21 20 19 18 17 17 18 19 19 19 19 19 18 18 17 16 14 12 11 12 11 10 10 10 10 10 10 9 9 10 10 11 11 12 12 12 12 13 13 14 15 15 15 15 16 15 16 16 16 15 15 15 15 15 15 14 13 12 11 11 10 11 11 12 13 14 14 14 15 16 17 18 20 20 20
29 29 28 27 27 27 25 25 25 24 23 21 20 18 18 17 18 19 19 19 19 18 17 17 16 14 13 11 10 11 10 9 10 10 10 9 9 9 9 9 10 10 11 11 12 12 13 13 13 14 15 15 16 16 17 17 17 17 17 18 18 18 18 18 17 16 15 14 13 12 12 12 12 13 14 15 16 16 16 17 17 18 18 19 20
34 33 32 30 30 29 27 27 26 26 24 22 21 19 18 17 18 19 19 18 17 17 16 16 16 14 13 13 12 11 11 10 10 9 9 8 8 8 9 9 9 10 11 11 12 12 13 13 14 14 15 15 16 16 16 16 17 17 17 18 18 18 18 19 19 18 17 16 15 14 13 13 13 13 14 16 17 18 17 17 18 18 19 19 20
35 33 33 32 32 30 29 28 28 27 26 24 22 21 20 19 19 19 18 17 17 16 16 16 15 14 13 13 12 12 11 10 9 9 9 8 7 8 8 9 9 10 11 11 12 13 14 14 15 15 15 15 15 15 15 16 16 16 17 17 17 17 18 19 19 19 19 18 18 16 15 15 14 15 16 18 18 18 18 18 18 19 19 19 19
30 33 35 35 34 32 31 30 30 29 27 25 23 22 21 21 20 20 19 18 17 17 17 17 15 14 14 14 13 13 12 11 9 9 9 8 7 7 8 8 8 9 10 11 12 13 14 15 16 15 15 14 14 14 14 14 15 16 17 17 17 18 18 19 19 19 19 19 19 19 18 18 17 17 18 19 19 19 19 19 19 19 19 19 19
32 35 37 36 36 35 33 32 31 30 28 26 24 23 23 21 21 21 21 20 19 18 18 17 16 15 15 14 14 13 12 11 9 9 9 8 7 7 7 7 7 8 9 10 12 13 15 15 16 15 14 13 13 13 13 14 15 16 17 17 18 19 19 20 20 20 20 20 20 20 19 19 20 20 20 21 22 22 21 21 20 19 19 19 19
34 36 37 37 37 37 35 34 33 32 30 28 26 26 24 23 22 22 22 21 20 20 18 17 16 16 15 15 14 13 12 11 10 9 8 8 7 6 6 5 6 7 8 10 12 14 15 15 15 14 14 13 13 13 13 13 15 16 17 18 19 20 20 21 22 22 22 21 21 21 20 20 20 21 22 22 23 23 23 22 22 21 20 19 19
35 36 37 38 39 38 37 36 35 34 32 30 29 28 26 24 24 23 23 21 21 20 18 18 17 16 16 15 14 13 12 11 10 9 8 8 7 6 4 4 5 7 9 10 12 14 14 15 15 15 14 14 13 13 13 13 14 16 17 18 19 20 22 22 23 23 23 22 22 21 21 21 21 21 22 23 23 23 23 22 22 21 21 20 20
37 36 37 39 39 39 39 38 37 35 33 32 31 29 28 27 26 25 24 23 22 21 19 18 18 17 17 16 15 14 13 12 11 9 8 7 6 5 3 4 5 7 8 10 12 13 14 15 16 16 15 14 13 13 12 13 14 15 16 17 19 20 22 23 23 24 24 23 22 22 21 21 21 21 21 22 22 22 22 21 21 21 20 20 20
36 36 38 40 39 40 40 39 38 36 34 33 32 31 30 29 28 26 25 24 23 22 20 19 19 18 18 17 16 14 13 12 11 10 9 7 6 4 2 3 5 6 8 10 11 13 14 15 16 16 15 14 13 12 11 12 13 14 15 16 18 20 21 22 23 24 23 23 22 22 21 21 21 21 21 21 22 21 21 20 19 19 19 20 20
36 39 40 39 39 41 40 40 39 37 36 35 34 33 32 31 29 27 27 25 24 23 21 20 20 20 19 18 17 15 14 13 12 10 9 8 6 4 2 2 4 6 8 9 11 12 14 14 14 14 13 12 11 11 11 12 13 14 14 16 18 20 21 22 23 24 23 23 22 21 21 21 21 20 20 20 20 20 20 19 19 18 19 19 20
37 39 39 39 40 41 41 40 39 38 37 36 35 34 33 32 30 29 28 27 25 24 23 22 21 21 21 19 18 16 15 14 13 11 10 8 6 4 2 1 3 5 7 9 10 11 12 13 12 12 12 11 11 12 12 13 13 14 15 16 18 19 21 23 24 23 22 22 22 22 21 21 20 19 18 18 18 18 17 17 17 18 18 19 19
37 36 38 40 41 41 41 40 39 39 38 37 36 34 34 33 31 30 29 28 27 25 24 23 22 22 21 20 19 18 17 15 14 12 11 9 7 5 3 1 2 4 6 8 9 10 11 11 12 11 11 11 13 13 15 15 15 16 16 17 19 20 22 24 24 23 22 22 22 22 21 19 18 17 17 16 16 16 16 16 16 17 17 18 19
36 37 41 42 41 41 41 40 39 39 38 37 36 35 34 33 31 31 30 29 28 26 26 25 24 23 22 21 20 18 17 16 15 13 11 10 8 6 4 1 1 3 5 6 8 9 9 10 11 11 11 12 13 14 15 17 17 18 19 19 21 22 24 25 24 23 22 21 22 21 19 17 16 15 16 16 16 17 17 16 16 16 17 18 19
40 41 42 41 41 41 41 40 39 39 38 37 36 35 33 32 32 31 30 29 28 28 27 26 25 24 23 22 21 19 17 17 15 14 12 11 9 7 4 2 1 2 4 5 7 8 9 10 10 11 12 13 14 15 16 17 19 20 21 23 24 24 26 26 24 23 22 20 20 18 16 14 14 14 15 16 16 17 17 17 15 16 17 19 20
43 42 42 42 42 41 41 40 40 39 38 37 36 35 33 32 32 31 30 29 29 29 28 27 25 24 24 23 21 20 18 17 16 14 13 11 9 7 5 3 2 1 2 4 6 7 8 9 9 10 11 13 14 15 16 18 20 22 24 25 26 27 27 26 25 23 20 17 16 15 14 14 14 14 15 16 16 17 18 18 16 15 17 21 22
42 42 43 44 43 41 41 39 39 38 37 37 36 35 33 32 31 30 29 29 30 29 28 27 26 25 25 24 22 21 19 18 16 15 13 12 10 8 6 4 3 1 2 3 5 6 7 8 9 9 9 11 12 14 16 19 21 24 26 26 27 28 27 26 24 21 17 15 15 15 15 15 15 16 16 17 17 19 20 20 19 16 18 21 22
40 41 42 42 41 40 40 38 38 38 38 37 36 35 33 32 31 29 29 29 29 29 28 28 27 26 25 24 23 22 20 19 17 16 14 13 11 9 7 6 3 2 2 2 3 5 6 7 7 8 8 8 10 12 15 18 22 24 25 27 28 28 27 25 21 17 15 14 15 16 17 17 18 19 20 20 20 22 23 24 22 19 19 22 21
39 40 41 40 40 40 39 39 39 40 39 37 37 36 34 33 31 30 30 31 30 29 28 28 27 26 25 25 24 23 22 20 19 17 15 13 12 10 8 6 4 2 1 1 2 4 5 6 6 7 9 9 10 11 14 18 22 23 24 27 28 26 25 22 17 13 12 14 19 23 23 23 23 22 21 21 22 23 24 25 23 21 21 22 22
37 39 41 41 42 43 42 42 41 42 42 41 40 39 38 36 34 34 34 33 32 31 29 28 28 27 26 25 25 24 23 21 19 18 16 14 12 10 8 7 5 4 2 1 1 3 4 5 5 6 9 11 12 11 13 17 18 20 23 25 27 25 20 18 11 7 12 21 25 23 21 19 19 19 19 19 20 21 23 24 24 24 25 25 25
36 40 42 43 43 44 45 44 44 44 44 44 42 41 41 40 38 38 37 35 35 34 32 31 30 28 27 25 25 25 23 22 20 18 17 15 13 11 9 8 7 5 4 2 0 2 2 3 5 6 7 9 12 12 12 13 12 16 18 17 21 20 16 12 4 7 24 27 17 14 15 17 17 18 19 19 20 21 23 24 25 26 26 26 25
38 41 42 43 43 43 44 44 44 45 44 44 43 42 41 39 37 37 36 35 34 34 33 31 30 29 27 26 25 25 23 22 21 19 18 16 14 12 11 9 8 7 5 4 1 1 2 3 4 6 6 8 11 11 10 9 10 16 13 7 8 10 11 6 3 23 34 17 9 16 20 19 17 18 19 20 21 22 23 25 26 27 26 25 25
36 38 40 41 42 42 43 43 44 44 44 44 43 41 39 36 34 33 34 33 31 32 30 29 29 29 28 27 26 25 24 23 22 20 18 17 15 13 12 11 9 8 7 4 2 1 2 3 3 4 4 7 9 9 10 9 10 11 7 3 3 4 5 4 14 32 23 4 13 24 20 15 14 18 22 21 20 22 25 27 27 27 26 26 28
35 38 41 42 42 42 43 44 44 44 44 44 43 40 37 35 31 29 30 28 27 29 29 29 30 30 30 30 28 27 25 24 23 21 19 17 15 14 13 12 10 9 7 5 3 2 2 2 3 2 3 7 9 9 10 11 9 6 4 4 3 2 3 7 17 20 12 14 25 21 12 12 16 22 24 21 20 23 25 26 27 28 29 31 31
36 40 43 43 42 43 44 44 44 44 44 43 42 41 39 37 35 33 32 29 29 32 35 36 36 36 35 33 31 30 28 26 24 22 20 18 16 15 14 13 11 10 8 6 4 2 3 3 3 4 5 6 8 10 12 12 11 7 5 6 6 6 6 8 8 7 13 23 21 15 14 17 21 23 21 20 22 26 27 27 28 30 32 33 32
36 39 40 41 41 42 44 44 43 43 43 43 43 42 40 40 40 39 38 36 35 36 38 39 39 39 37 35 33 31 29 27 25 23 21 19 17 16 15 13 12 10 9 7 5 4 4 4 4 5 6 7 8 10 13 14 12 7 6 8 11 12 11 9 5 4 10 12 10 17 23 21 21 21 21 23 26 27 28 28 30 32 33 33 32
34 36 37 39 40 41 43 43 42 41 42 43 44 44 43 42 42 40 39 39 39 38 38 38 38 38 37 36 35 33 30 28 27 25 22 20 19 17 16 14 13 12 10 8 6 5 5 5 6 7 8 9 10 11 12 12 11 10 11 12 13 14 14 14 13 9 6 6 9 14 19 19 22 24 25 26 28 28 29 29 30 32 32 32 32
32 36 38 39 39 39 41 41 40 41 41 43 45 46 45 44 43 40 39 39 37 35 36 37 37 37 37 36 35 33 31 29 27 25 23 21 19 18 17 15 14 13 11 9 8 6 6 7 7 8 9 10 10 11 12 11 11 14 15 14 14 15 16 16 17 13 7 8 8 6 11 18 20 26 30 29 28 28 28 30 31 31 31 32 32
31 35 36 36 36 37 39 40 41 41 42 44 46 46 45 44 44 43 41 39 35 33 33 34 35 35 36 36 35 34 32 30 28 26 24 22 20 19 18 16 15 13 12 10 8 7 7 8 7 8 9 10 11 11 11 12 13 15 15 15 15 15 13 10 10 11 9 9 9 7 11 15 14 20 28 30 30 30 31 31 30 31 30 30 31
28 31 33 34 36 37 38 40 40 41 41 44 46 46 46 46 46 45 43 41 38 36 35 35 35 36 36 36 36 34 33 32 30 27 25 23 21 20 18 17 15 14 13 11 9 8 8 8 7 8 9 10 10 10 11 12 14 16 17 17 17 16 13 10 11 13 10 7 9 10 13 19 20 20 24 28 29 30 31 30 28 30 31 31 31
Wind_Direction
160 167 153 141 131 118 119 120 110 104 102 100 99 103 108 110 115 117 116 115 115 112 107 103 99 95 92 88 87 86 85 81 79 78 78 78 79 76 74 77 80 71 53 31 21 22 21 27 24 24 46 10 351 1 4 5 9 12 16 22 26 26 23 20 18 18 18 18 12 8 1 343 335 345 26 4 328 314 329 347 11 5 358 352 349
158 164 163 152 147 131 127 130 121 114 109 101 100 103 103 106 107 108 110 111 110 108 104 100 97 94 92 89 90 90 88 86 83 79 77 77 72 70 69 67 75 66 48 38 33 32 24 21 19 19 17 8 6 354 354 356 354 354 356 358 2 7 11 12 11 11 13 18 20 27 35 41 60 68 62 38 359 319 335 340 3 353 344 341 340
159 162 166 159 159 150 147 147 140 136 129 113 109 114 110 110 107 106 106 105 105 104 101 99 97 94 94 93 93 94 94 93 92 87 82 80 79 77 74 69 71 71 57 50 47 42 33 31 28 26 14 4 13 354 352 351 344 344 348 350 351 352 353 358 2 3 6 14 22 44 54 52 53 49 51 42 8 326 327 311 335 344 341 339 336
172 169 164 159 159 157 159 155 150 147 142 128 120 124 120 119 115 116 113 110 111 107 105 103 103 101 103 107 105 103 101 100 98 93 84 78 76 75 78 78 75 76 65 51 46 46 40 44 47 38 21 9 4 336 332 334 336 335 337 342 344 345 344 346 348 352 357 8 22 50 52 42 38 33 18 9 359 333 284 303 341 350 348 345 338
173 169 162 157 153 149 148 141 139 136 136 130 126 126 122 126 126 128 126 122 119 114 107 104 107 106 108 115 111 106 105 106 100 89 78 67 60 63 76 88 88 84 72 55 44 49 47 50 57 47 38 29 6 338 325 324 329 326 328 330 330 333 333 336 336 340 345 356 14 38 47 39 25 8 353 354 358 349 339 347 357 356 354 350 340
169 166 161 158 152 142 135 130 128 128 128 126 128 128 128 133 131 130 129 125 120 117 111 113 116 113 116 113 105 103 107 117 115 83 39 54 71 84 95 106 110 94 78 65 44 51 60 61 66 54 53 53 20 355 341 335 336 328 326 325 325 325 323 326 327 332 337 344 357 9 34 36 20 357 339 345 355 350 342 337 337 339 338 333 330
169 165 165 164 152 141 135 133 132 132 131 128 129 127 130 131 128 128 125 123 122 121 118 119 117 115 119 110 114 125 131 153 146 167 184 147 147 149 143 129 122 104 78 66 41 43 81 74 72 42 33 34 11 354 341 339 346 338 332 329 328 329 324 324 329 335 338 341 349 356 12 24 14 0 346 349 351 340 328 318 312 320 324 318 315
168 167 176 172 157 147 140 138 136 136 134 131 130 127 129 124 122 123 123 125 126 125 119 117 113 114 110 103 130 153 139 128 106 121 155 152 159 166 173 148 108 105 69 58 42 13 14 13 352 332 332 346 346 339 329 321 323 321 319 319 320 321 320 320 326 331 333 338 341 342 351 8 356 345 341 337 332 319 309 310 309 318 326 323 316
172 176 180 175 163 155 147 145 140 136 134 130 129 126 124 122 120 116 117 123 125 121 115 116 113 107 102 102 113 107 103 107 103 112 127 113 101 77 23 327 1 41 48 47 37 19 7 355 343 331 326 328 329 328 326 322 319 317 315 313 312 311 310 309 312 316 320 324 327 328 331 334 322 319 320 316 314 302 294 299 305 318 325 324 321
178 180 182 178 168 161 157 154 147 143 144 143 141 137 132 134 136 126 123 127 128 123 115 114 111 107 108 117 117 107 107 108 111 111 106 93 83 68 55 44 32 35 43 39 29 22 11 357 343 335 330 327 328 327 324 323 320 319 318 317 315 312 308 305 305 306 308 311 313 317 315 300 287 292 298 302 304 294 291 296 303 315 322 323 325
179 181 183 181 172 165 165 164 160 160 162 162 159 158 156 157 158 152 150 150 148 141 133 130 127 128 128 132 125 120 121 114 113 107 101 93 83 75 68 61 57 55 61 61 44 26 5 348 335 330 328 328 328 327 324 322 320 318 318 317 317 313 310 307 304 304 303 303 303 305 305 294 279 279 282 288 296 296 297 300 305 312 317 321 325
177 178 177 176 173 170 173 172 169 171 170 167 164 163 163 162 163 164 167 168 166 162 159 157 153 155 150 142 134 130 129 124 121 112 106 98 91 83 77 69 64 60 58 62 55 38 12 349 337 333 331 331 330 328 326 323 321 318 317 316 315 314 311 307 304 302 301 298 296 295 295 290 278 278 280 281 290 294 296 299 304 310 314 317 320
175 178 176 173 172 173 176 176 173 173 171 167 165 163 163 164 165 168 172 174 176 176 172 171 164 160 155 147 140 136 133 131 127 119 112 102 98 89 85 77 70 64 59 58 53 44 27 8 355 350 347 346 343 341 337 334 329 324 320 317 315 313 310 307 303 300 297 294 291 288 283 280 278 279 283 285 289 290 293 293 297 304 309 311 314
178 180 180 177 174 174 175 177 175 173 172 169 166 166 167 168 171 173 175 178 178 177 174 171 162 153 145 137 128 127 124 124 120 114 110 102 97 90 87 79 72 64 57 52 47 42 32 24 17 13 10 7 3 360 358 354 348 342 337 330 325 321 315 308 304 301 298 296 292 287 279 274 273 275 283 290 290 289 291 289 290 297 302 306 309
184 182 183 182 179 178 177 178 177 177 176 172 170 171 173 175 179 181 180 180 176 171 167 161 153 145 138 131 124 120 115 116 113 110 105 99 94 86 79 71 64 55 49 43 37 35 29 25 21 18 17 15 13 11 11 8 4 0 355 350 344 340 334 321 315 311 305 301 298 295 289 284 276 272 275 281 286 287 286 286 289 295 298 301 302
189 185 184 183 183 183 181 180 180 181 179 176 175 174 178 182 186 187 183 180 173 168 161 154 148 142 137 132 127 123 116 114 110 105 99 94 87 79 74 66 59 53 47 42 36 32 28 25 23 21 21 20 18 17 19 17 13 11 7 5 3 1 356 343 335 330 320 311 306 303 301 298 291 285 280 280 285 286 282 284 292 295 297 299 299
190 189 186 183 184 185 183 184 184 184 181 178 178 178 182 187 188 187 181 176 170 165 159 154 149 145 143 138 135 130 125 120 115 110 104 100 93 85 78 71 66 61 57 52 46 41 35 32 29 27 26 24 22 23 25 23 19 17 14 14 16 16 10 1 355 351 345 335 325 319 313 311 309 307 301 293 290 284 278 277 285 293 300 303 302
191 194 190 186 185 185 186 187 188 186 185 181 180 183 186 188 189 185 178 173 168 163 158 155 153 152 150 146 144 139 136 132 128 126 120 116 109 102 95 89 84 77 72 67 60 54 48 42 38 34 32 28 24 22 22 24 22 18 16 16 18 15 8 2 359 353 348 343 334 325 317 314 310 310 312 308 299 292 285 277 280 288 293 298 299
192 196 193 191 189 189 190 190 191 189 188 186 185 187 188 190 189 186 180 173 168 163 161 160 160 157 155 154 151 147 144 141 139 138 133 129 121 116 112 105 95 87 80 71 65 59 54 49 44 39 35 32 27 25 22 21 20 17 15 13 11 6 2 358 353 345 336 327 316 307 302 297 294 296 308 317 309 302 299 286 281 284 286 288 291
193 197 195 196 193 192 193 193 194 192 191 189 189 189 188 189 186 185 181 175 171 168 167 166 163 159 157 156 153 148 145 144 143 141 135 131 124 119 112 103 92 84 76 66 61 56 51 46 43 39 34 31 28 25 22 21 18 15 13 8 5 3 1 357 352 347 340 332 319 307 299 294 291 295 309 322 317 308 307 295 282 280 283 284 286
193 198 198 199 197 195 195 195 195 194 193 192 191 189 187 185 183 182 179 177 174 171 169 163 158 155 155 156 149 141 139 139 139 137 132 126 121 115 103 93 82 75 68 61 56 52 49 43 38 35 30 27 24 23 21 20 17 14 12 9 5 3 1 357 353 349 345 340 332 323 312 303 298 299 306 314 311 306 306 301 288 281 282 283 287
193 195 199 201 200 198 197 196 196 196 195 194 192 188 187 185 182 180 178 176 172 168 164 156 152 150 148 149 141 132 131 133 134 133 128 121 116 108 95 86 77 71 65 59 54 49 44 39 35 30 26 23 19 17 17 15 14 12 11 8 6 5 3 0 357 354 349 342 335 329 319 309 303 301 303 305 304 304 304 303 297 290 288 288 291
194 195 197 201 203 200 199 199 199 199 196 194 193 189 188 186 181 179 177 175 171 166 161 154 152 151 147 145 145 141 137 137 137 132 125 119 114 105 95 89 80 73 66 57 50 44 39 34 31 27 23 21 18 15 14 12 11 10 8 6 5 4 2 0 359 356 353 348 343 337 329 319 309 304 304 307 311 311 308 304 301 297 295 294 293
199 198 197 198 203 202 201 201 201 202 200 195 193 192 189 186 182 179 178 176 172 167 161 157 158 158 153 153 158 155 147 146 146 137 128 124 118 109 100 92 78 67 60 50 44 38 33 28 26 23 19 18 16 14 11 10 11 9 6 5 3 1 359 357 355 353 353 350 348 345 340 332 323 315 311 313 316 314 311 307 304 301 299 296 295
203 200 197 198 202 203 203 201 202 205 204 199 195 194 191 186 183 180 179 177 174 169 164 164 166 165 159 160 164 161 153 151 151 142 132 126 121 111 97 84 68 56 47 39 36 31 26 23 22 18 17 16 14 12 10 8 9 7 5 4 0 358 356 354 352 350 349 347 347 346 343 339 333 327 321 317 316 314 312 309 307 304 302 301 299
204 202 201 200 202 205 205 203 203 205 206 203 199 197 194 189 186 182 181 180 178 174 171 171 171 168 166 166 168 166 158 154 154 146 134 129 122 106 87 75 59 46 38 30 26 24 19 18 17 16 16 15 14 12 11 10 9 6 4 2 358 356 355 353 351 348 346 344 344 344 342 339 336 331 325 320 316 314 312 310 307 306 304 304 302
205 206 204 203 203 204 206 205 204 205 207 204 200 198 196 192 190 187 186 184 182 181 178 177 174 174 173 173 175 173 163 159 158 148 138 133 121 100 83 70 53 38 31 25 21 20 17 15 15 14 13 13 14 13 13 13 11 6 2 360 357 355 353 351 349 346 343 340 339 339 337 334 332 330 327 322 319 316 315 313 311 308 306 305 304
206 207 205 203 204 204 205 206 206 207 205 202 199 198 197 193 191 191 191 189 187 188 184 180 179 179 179 180 181 178 169 165 162 153 143 135 120 102 86 66 50 37 27 22 20 19 17 15 14 13 13 13 14 14 13 13 11 5 359 357 355 352 351 349 347 344 340 337 335 334 332 329 327 325 323 320 318 317 317 316 315 313 312 310 308
207 207 205 204 205 205 205 206 207 207 205 200 198 197 196 194 194 194 193 192 191 194 190 184 184 182 182 184 185 181 174 170 165 159 149 138 123 107 93 64 49 37 27 21 19 18 16 14 12 11 11 12 15 14 12 10 7 2 354 352 351 348 347 346 344 342 339 337 334 332 329 326 323 322 320 318 317 316 316 317 317 317 316 315 314
210 207 204 205 205 204 204 207 207 206 204 200 198 197 195 195 197 196 195 194 193 196 194 189 186 185 184 185 187 183 176 173 169 163 154 142 129 116 97 63 46 33 25 20 18 15 12 10 8 7 6 8 12 10 5 2 359 355 350 348 347 344 343 342 342 341 339 338 335 330 327 325 323 322 320 318 317 316 317 318 318 318 318 319 318
209 206 206 206 203 202 203 205 206 205 203 201 199 198 196 198 198 196 195 195 194 196 196 193 188 186 187 185 187 184 178 176 170 166 160 148 138 124 100 59 42 29 22 18 16 12 9 8 5 4 3 4 7 6 359 351 348 346 343 343 343 341 339 337 337 339 340 338 334 329 326 325 324 323 322 321 318 317 317 318 318 320 320 321 321
207 206 206 204 201 201 202 203 204 204 203 202 201 199 198 199 198 195 195 196 195 196 196 197 191 186 188 187 188 185 180 177 172 171 165 155 149 138 121 55 38 24 19 15 12 9 8 6 4 2 359 358 0 0 353 344 340 338 337 340 339 338 336 334 335 339 341 339 335 330 327 325 326 326 325 325 324 321 319 319 318 320 322 323 324
208 207 204 201 201 201 200 201 202 203 203 202 202 201 200 199 198 197 196 196 196 196 197 199 195 187 188 188 188 186 181 179 177 175 169 164 161 158 176 65 35 16 16 12 8 7 6 4 2 359 355 354 356 356 351 343 338 335 336 337 336 336 335 333 336 340 342 340 335 330 327 327 328 329 330 331 332 329 327 325 323 322 323 324 325
207 203 201 201 201 200 199 199 200 202 202 202 202 201 200 199 199 198 197 197 196 197 198 200 198 190 188 188 189 188 182 180 181 178 173 173 171 174 188 138 26 12 15 10 8 7 5 4 0 356 354 353 353 352 345 339 336 334 335 334 333 335 335 335 337 340 343 338 332 328 327 329 331 332 334 338 338 336 333 330 329 328 325 324 324
204 200 202 201 199 199 198 197 199 201 201 201 202 201 200 199 199 198 197 197 196 197 199 201 200 193 190 189 191 191 183 181 182 180 178 176 178 183 186 171 31 21 18 13 12 9 7 6 359 353 353 353 350 347 340 334 332 330 331 330 331 334 335 335 337 339 341 337 330 328 330 334 336 338 338 338 339 336 333 329 327 329 328 326 324
204 202 201 198 197 197 197 196 196 198 199 200 201 200 200 199 199 198 197 197 196 197 199 201 200 195 192 190 192 192 185 184 183 181 181 178 181 184 185 178 102 40 27 21 16 11 8 5 1 354 349 349 345 341 339 334 329 328 328 328 330 332 332 334 334 336 339 336 332 332 336 340 339 338 336 335 335 334 333 327 323 326 329 330 327
204 201 197 195 194 195 194 195 195 196 197 197 198 198 198 199 199 197 197 196 196 198 199 201 200 195 193 193 193 190 187 187 183 181 181 179 182 183 184 177 154 77 45 30 20 14 5 1 2 356 347 342 337 336 339 337 331 327 327 328 329 330 331 333 333 333 338 340 339 339 340 341 337 333 328 327 327 328 327 323 318 321 327 330 328
202 199 196 195 193 191 192 193 193 193 194 194 195 196 197 197 198 197 197 196 196 198 198 200 200 197 194 193 194 191 187 187 185 183 181 180 182 183 184 180 176 137 68 36 26 16 5 1 357 353 344 335 333 337 339 336 330 325 325 327 328 329 331 334 333 335 343 343 339 338 337 335 332 327 324 322 320 319 319 318 314 313 323 328 326
199 197 195 193 190 188 189 190 190 190 192 192 192 193 193 194 194 194 195 195 194 196 198 201 201 199 195 192 194 192 187 188 187 185 183 183 184 183 186 186 188 166 87 44 32 16 8 3 350 345 338 332 337 342 342 336 327 323 323 326 328 331 334 337 337 339 344 344 341 337 332 327 323 319 316 315 313 311 311 313 311 307 315 322 321
195 193 190 189 187 185 185 187 188 188 189 189 189 188 187 189 189 189 191 193 193 194 198 201 202 202 198 193 194 193 190 188 187 186 186 186 186 187 190 192 194 180 137 67 36 16 8 359 344 336 330 332 341 349 351 337 325 324 325 327 330 333 338 342 342 348 356 348 336 326 320 319 319 319 316 313 311 310 311 311 308 305 309 314 314
190 188 186 186 186 184 184 185 186 187 187 186 186 186 185 185 186 188 189 190 191 193 195 199 202 203 201 196 194 194 191 189 188 188 188 188 189 189 193 197 197 190 182 157 32 14 7 349 335 331 329 331 335 347 355 339 331 335 331 328 330 336 347 350 353 14 349 332 328 326 326 326 327 329 325 318 314 314 315 313 307 304 305 307 309
184 185 185 185 186 185 186 185 185 187 188 188 188 188 189 189 189 190 189 189 191 192 194 197 200 202 203 199 196 196 193 190 190 190 190 191 191 192 197 200 200 195 192 189 71 9 359 337 326 329 332 329 325 333 348 347 344 341 332 325 329 339 353 3 44 345 328 327 336 348 341 330 323 323 319 313 311 311 313 312 307 304 302 304 307
182 184 184 184 184 184 186 185 185 187 188 190 190 190 192 193 193 192 189 188 190 195 196 197 198 199 201 201 200 200 195 192 192 193 193 194 194 196 199 202 202 199 197 200 196 316 329 327 327 329 330 323 318 323 339 352 344 336 335 326 331 341 345 12 353 321 325 335 355 341 330 323 318 317 317 314 311 310 311 311 307 302 301 303 307
180 182 182 182 183 184 186 186 187 188 189 191 192 192 192 192 194 193 191 189 190 193 194 194 196 198 199 200 203 203 199 196 196 196 196 196 196 198 201 203 202 202 203 208 214 274 310 316 318 319 313 303 305 311 319 337 346 345 346 314 329 341 320 345 327 321 329 355 324 326 327 327 321 317 320 318 312 310 311 310 306 301 300 305 307
180 182 183 184 185 185 187 188 189 190 191 191 191 191 190 188 188 186 186 187 186 187 188 190 194 197 199 200 202 203 201 200 199 198 198 198 198 199 203 204 204 206 207 210 221 262 282 288 295 281 263 274 284 291 298 320 339 340 318 290 320 332 282 334 330 321 323 313 313 321 327 320 312 313 319 317 310 309 310 308 304 299 299 303 305
185 186 185 186 186 187 188 189 190 191 192 192 191 191 189 187 184 181 180 181 181 187 190 191 193 197 201 200 200 201 202 202 201 200 199 199 200 201 204 205 206 208 208 210 217 241 262 264 269 255 242 251 267 279 286 305 318 307 282 271 271 268 283 325 329 306 310 312 314 321 315 308 307 311 316 312 306 307 307 305 300 298 298 302 304
188 187 186 187 187 188 189 190 191 192 192 192 192 191 190 190 190 188 187 185 186 192 196 196 197 198 200 200 200 200 201 202 202 201 200 200 201 203 205 205 207 209 207 209 215 231 249 251 249 243 239 239 248 265 279 297 308 298 275 270 271 275 285 299 291 285 310 308 306 308 305 307 311 309 307 305 304 305 305 303 300 299 300 302 303
187 184 185 187 188 189 190 191 192 193 193 193 193 194 193 193 193 193 193 194 195 197 197 198 200 199 199 200 200 200 201 202 203 202 201 202 202 203 205 206 206 208 208 209 215 232 241 242 241 233 234 239 245 258 271 284 291 286 287 287 281 281 283 282 280 283 289 288 295 296 296 304 307 304 303 302 303 303 303 301 301 301 302 302 303
185 184 186 187 189 190 190 191 193 194 194 194 195 196 197 196 195 195 197 199 200 199 197 197 198 198 198 199 199 200 200 202 204 204 202 203 204 205 206 207 208 207 208 210 215 228 239 239 237 232 234 242 247 256 265 270 271 276 286 291 289 287 288 286 285 287 286 287 293 290 298 304 301 300 304 304 304 304 302 301 301 301 301 303 304
187 187 187 186 188 189 190 192 194 195 195 196 197 197 198 198 197 198 199 199 199 197 195 195 196 196 196 197 198 199 200 201 202 203 204 203 204 206 208 209 209 208 209 211 215 225 238 240 235 233 236 243 249 251 257 263 266 270 275 279 283 288 294 291 287 301 305 285 282 292 300 302 298 301 306 306 306 306 303 301 301 301 302 303 305
188 187 187 187 188 189 191 194 196 197 197 198 199 199 200 200 201 201 201 199 196 193 192 192 193 193 194 195 196 198 200 201 201 201 203 203 203 206 209 209 208 210 212 212 217 225 234 238 233 234 238 245 253 255 258 261 263 266 266 266 271 274 278 278 284 302 309 292 295 299 300 305 303 299 303 305 303 301 301 300 300 301 304 304 305
Height
836 837 837 837 838 837 838 839 840 840 840 841 840 841 841 842 842 842 842 843 843 844 844 844 844 845 845 845 845 845 846 845 846 846 846 846 845 845 845 845 845 846 846 846 846 846 846 846 846 846 846 846 845 845 845 845 845 845 845 845 845 844 844 843 843 842 842 841 840 840 839 839 839 840 840 841 841 841 841 842 842 842 843 843 843
835 836 836 836 837 837 837 837 839 839 839 840 840 841 841 841 841 842 842 842 842 843 843 843 844 844 845 845 845 845 845 845 845 845 845 845 845 845 845 845 845 845 845 846 846 845 846 846 846 845 845 845 845 845 845 845 845 845 845 845 845 844 844 844 843 842 841 841 840 839 839 839 839 840 840 840 840 841 841 841 841 841 842 842 843
834 835 835 835 836 836 836 837 837 838 839 839 840 840 841 841 841 842 842 842 842 842 842 843 844 844 844 844 844 844 844 845 845 845 845 844 844 844 844 844 844 845 845 845 845 845 846 845 845 845 845 845 845 845 845 845 845 846 845 845 845 844 844 843 843 842 841 841 840 840 839 839 839 839 840 840 840 840 840 840 840 841 841 842 842
833 833 834 834 835 835 835 836 837 837 838 838 840 840 841 841 841 842 841 842 842 842 842 843 843 843 844 844 844 844 844 844 844 844 844 843 843 843 843 844 844 845 845 845 845 845 845 845 845 845 844 844 845 845 845 845 845 845 845 845 844 844 843 843 842 842 841 841 840 840 840 839 839 839 840 840 840 840 840 840 840 840 841 841 841
831 832 833 833 834 834 835 835 836 836 837 838 839 839 840 840 841 841 841 842 841 842 842 842 843 843 843 843 844 844 843 843 843 843 843 843 843 843 843 844 844 844 845 845 845 845 845 845 845 844 844 844 845 845 845 845 845 845 845 845 844 844 843 842 842 841 841 841 841 840 840 839 839 840 840 840 840 840 840 840 840 840 840 840 841
830 831 831 832 833 833 834 835 836 836 837 837 838 838 839 839 839 840 840 841 841 841 841 842 842 843 843 843 844 843 843 843 843 842 842 842 842 843 843 843 844 844 844 845 845 844 844 844 844 844 844 844 845 845 845 845 845 844 844 844 843 843 842 842 842 841 841 840 841 840 840 839 840 840 840 840 840 840 840 840 839 839 839 839 840
828 829 830 831 832 833 834 835 835 836 836 837 837 838 838 838 838 839 839 840 840 841 841 841 842 842 842 842 843 842 842 842 842 842 842 842 842 842 842 843 843 844 844 844 844 844 844 844 844 844 844 844 844 845 845 844 844 844 843 843 842 842 841 841 841 841 841 840 840 840 839 839 840 840 840 840 839 839 839 839 839 839 839 838 839
827 828 829 830 831 832 833 834 835 835 836 836 837 837 838 838 838 839 839 840 840 841 841 841 841 841 842 842 841 842 842 842 842 842 842 841 842 842 842 842 843 843 843 844 844 843 843 843 843 843 843 844 844 844 844 844 843 843 843 842 842 841 841 841 840 840 840 840 839 839 839 839 839 839 840 840 839 839 838 839 838 838 838 838 838
827 828 829 829 830 831 832 833 833 834 835 835 836 836 837 837 837 838 839 840 840 840 841 841 841 841 841 841 840 841 841 841 841 841 841 841 841 841 842 842 842 842 843 843 843 843 843 843 843 843 843 843 843 842 842 842 842 842 841 841 841 840 840 840 840 840 839 839 839 839 838 838 839 839 839 839 839 838 837 838 838 838 837 837 837
825 826 828 828 829 830 831 831 832 833 834 834 834 835 835 835 836 837 838 838 839 839 840 840 840 840 840 840 840 840 840 841 841 841 841 841 841 841 842 842 842 842 842 842 842 842 842 842 842 842 842 841 841 841 841 841 840 840 840 839 839 839 839 839 839 838 838 838 838 838 838 838 838 838 838 838 838 838 837 837 837 837 837 837 837
824 825 826 827 828 829 829 830 830 831 832 833 833 834 834 834 835 835 836 837 838 838 839 839 839 839 839 839 840 840 840 840 840 841 841 841 841 841 842 841 842 842 842 842 842 842 841 841 841 841 840 840 840 840 840 839 839 839 838 838 838 838 838 838 838 837 837 837 837 837 837 837 837 837 837 837 837 836 836 836 836 836 836 836 836
822 823 824 825 826 827 828 828 829 830 831 832 832 833 833 834 834 835 835 836 836 837 838 838 838 838 839 839 839 839 840 840 840 840 841 841 841 841 841 841 841 841 841 841 841 841 841 841 840 840 839 839 839 838 838 838 837 837 837 837 836 837 837 837 836 836 836 836 837 836 837 836 836 837 837 836 836 836 835 835 835 834 834 835 835
821 822 823 824 825 826 826 827 828 829 830 831 831 832 832 833 833 834 834 835 835 836 837 837 837 838 838 838 839 839 839 839 839 840 840 840 841 841 841 841 841 841 841 841 841 841 841 840 840 840 839 839 838 838 837 837 837 836 836 835 835 835 835 835 835 835 835 835 836 836 836 836 836 836 836 836 835 835 834 834 834 833 833 833 834
819 821 822 823 823 824 825 826 827 828 829 829 830 831 831 832 832 833 834 834 835 835 836 836 837 837 837 838 838 838 838 839 839 839 840 840 840 841 841 841 841 841 841 841 841 841 841 840 840 839 839 838 838 837 837 836 836 835 835 835 834 834 833 833 833 833 833 834 834 835 835 835 835 835 835 835 835 835 834 833 833 832 832 832 832
818 819 820 821 822 822 823 824 825 827 827 828 829 830 830 831 831 832 833 833 834 834 835 835 836 836 837 837 838 838 838 838 838 839 839 839 840 840 840 840 840 840 840 840 840 840 840 840 840 839 839 838 837 837 836 836 835 835 834 834 834 833 833 832 832 832 832 832 833 833 834 834 834 834 834 834 834 834 834 832 832 832 831 831 831
817 818 819 820 821 822 823 824 825 826 826 827 828 829 829 830 830 831 832 832 833 833 834 834 835 836 836 837 837 837 838 838 838 838 839 839 839 839 840 840 840 840 840 840 840 840 839 839 839 838 838 838 837 836 836 836 835 835 834 834 834 833 832 832 831 831 831 831 831 832 832 833 833 833 833 833 833 833 833 832 831 831 830 830 830
816 817 818 819 820 821 822 823 824 825 825 826 827 828 828 829 829 830 831 832 832 832 833 834 834 835 836 836 837 837 837 837 838 838 838 839 839 839 839 840 840 840 840 840 839 839 839 839 838 838 838 837 837 836 836 836 835 835 835 834 833 833 832 831 831 830 830 830 830 830 831 831 832 832 832 832 832 831 832 831 831 830 829 829 829
814 816 816 817 818 819 821 822 823 824 824 825 826 827 827 828 829 830 831 831 831 832 832 833 834 834 835 836 836 837 837 837 838 838 838 839 839 839 839 839 840 840 840 839 839 839 839 839 838 838 838 837 837 836 836 835 835 834 834 834 833 833 832 831 831 830 830 830 829 829 830 830 830 830 830 830 830 830 830 830 830 829 829 829 828
813 814 815 816 816 818 819 820 821 822 823 824 825 826 827 827 828 829 830 831 831 831 832 832 833 834 835 836 836 837 837 838 838 838 838 839 839 839 839 839 839 839 839 839 839 839 839 839 838 838 838 837 837 836 836 835 835 834 833 833 832 832 831 831 830 830 829 829 829 828 829 828 828 828 829 829 829 829 828 828 828 828 827 827 827
812 812 813 814 814 816 817 818 819 820 822 822 823 824 825 826 827 828 829 830 830 831 831 832 833 833 834 835 836 836 837 837 838 838 838 839 839 839 839 839 839 839 839 838 838 838 838 838 838 838 837 837 836 836 835 835 834 833 833 832 832 831 830 830 829 829 828 828 827 827 827 827 827 827 827 828 827 827 827 826 826 825 825 825 825
810 809 810 811 812 814 814 816 817 818 820 820 822 823 824 825 826 827 828 829 829 830 830 831 831 832 833 834 835 835 836 837 837 837 837 838 838 838 838 838 838 838 838 837 837 837 837 837 837 836 836 836 835 835 834 834 833 833 832 832 831 831 830 829 828 828 827 827 826 826 826 825 826 826 826 826 826 826 825 825 824 824 823 823 823
806 807 808 808 809 811 812 814 814 816 817 818 820 821 822 823 824 825 826 827 827 828 828 829 829 830 831 831 833 834 834 835 836 836 836 837 836 837 837 837 837 837 837 836 836 836 836 836 836 836 835 835 835 834 834 833 833 832 832 831 831 830 829 829 828 827 827 826 825 825 825 824 824 825 825 825 824 824 824 823 823 822 822 821 821
803 803 804 805 806 808 809 810 811 813 815 816 817 819 820 820 822 823 824 825 825 826 826 827 827 828 829 830 831 832 833 834 834 835 835 836 836 836 836 837 837 836 836 836 835 835 835 835 835 835 834 834 834 834 833 833 832 831 831 830 830 829 828 828 827 827 826 825 825 824 824 823 823 823 823 823 823 822 822 822 821 821 820 819 819
798 799 800 802 803 805 806 808 809 810 812 813 815 816 817 818 820 821 822 823 824 824 824 825 825 826 827 828 830 831 832 833 833 834 834 835 835 835 836 836 836 836 835 835 834 834 835 835 834 834 834 833 833 833 833 832 832 831 831 830 829 829 828 827 826 825 825 824 824 823 823 822 822 822 822 822 821 821 821 820 820 819 818 817 817
795 797 798 800 801 802 803 805 806 807 809 810 812 813 814 816 817 819 820 821 822 822 823 824 824 825 826 827 828 830 830 831 832 832 833 834 834 835 835 835 835 834 834 833 833 833 833 833 833 833 833 833 832 832 832 831 831 830 830 829 829 828 827 826 825 824 824 823 822 822 821 821 821 821 821 821 820 820 819 819 818 817 816 816 815
794 795 795 797 798 799 800 802 803 804 806 808 809 810 811 813 814 816 817 819 820 821 822 822 823 824 825 826 827 828 829 830 830 831 832 832 833 833 833 833 833 833 832 832 832 832 832 832 832 832 832 832 832 832 831 831 830 829 829 828 828 827 826 825 824 824 823 822 821 820 819 819 819 819 819 819 819 818 818 818 817 816 815 814 814
789 790 791 793 795 796 798 799 800 801 803 805 807 808 809 810 811 813 814 816 818 819 820 820 821 822 823 824 825 826 827 828 829 830 830 831 831 832 832 832 832 831 831 831 830 830 831 831 831 831 831 831 831 830 830 830 829 829 828 827 827 826 825 824 823 822 821 821 820 819 818 817 817 817 816 816 816 816 816 816 815 815 814 813 812
785 786 787 789 791 792 795 796 797 799 800 802 804 805 806 808 809 810 812 813 815 816 817 818 819 820 821 822 823 824 825 826 827 828 829 829 830 830 831 831 831 831 830 830 829 830 830 830 831 831 830 830 829 829 829 829 828 828 827 826 825 824 823 822 821 820 820 819 818 817 817 816 816 816 815 815 814 814 814 814 813 813 812 812 811
781 782 784 786 787 789 791 793 794 796 798 799 801 802 804 805 806 808 809 811 812 814 815 816 817 818 819 820 821 823 823 825 826 827 828 828 829 829 830 830 830 830 829 829 829 829 830 830 830 829 829 829 828 828 828 828 827 827 826 825 824 823 822 821 819 818 818 817 815 815 815 815 815 814 814 814 813 813 812 812 812 811 811 810 809
776 778 781 782 783 786 787 789 791 793 795 797 798 800 801 802 804 805 807 809 810 811 813 814 815 817 818 819 820 822 823 824 825 826 827 827 827 828 829 829 829 829 829 828 828 828 829 829 828 828 828 827 827 827 827 827 826 826 825 824 823 822 821 820 818 817 815 814 813 813 812 813 813 813 813 812 812 811 811 811 810 810 809 809 808
773 775 776 778 780 782 784 786 788 790 792 794 796 797 798 799 801 803 805 806 808 809 811 812 814 815 816 817 819 820 822 823 824 825 825 826 826 827 828 828 829 828 828 828 828 828 828 828 827 827 827 826 827 827 826 826 825 825 825 823 822 821 820 819 817 815 813 812 812 812 811 811 811 811 811 810 810 809 809 809 809 809 808 808 807
769 769 771 774 777 778 781 783 785 788 790 791 793 795 796 798 799 801 803 804 806 807 808 810 811 813 814 816 817 819 820 821 822 823 824 825 825 826 827 828 828 828 828 828 827 827 827 827 827 827 827 826 827 826 826 825 825 824 824 822 821 820 819 817 815 813 811 811 811 811 810 810 809 809 808 808 808 807 808 807 807 807 806 806 805
764 766 769 771 773 775 777 780 782 785 787 789 791 793 794 796 797 799 801 802 804 805 806 808 809 811 812 814 816 817 818 820 821 822 823 823 824 825 826 827 827 827 827 827 827 827 827 827 827 827 826 826 826 825 825 824 824 823 822 821 819 818 817 815 813 811 809 809 809 809 809 808 808 807 807 806 806 806 806 806 806 805 805 804 804
761 765 766 767 769 772 774 777 779 782 784 787 789 791 792 794 796 797 799 800 802 803 804 806 807 809 811 812 814 815 816 817 818 820 821 822 822 824 825 826 826 826 827 827 827 826 826 826 826 826 826 825 825 824 824 823 823 822 820 819 818 816 814 812 810 808 807 807 807 808 807 807 806 806 806 805 805 805 806 805 805 805 804 803 803
758 760 761 763 766 768 771 774 776 779 782 785 786 789 791 792 794 795 797 799 800 801 802 804 805 807 809 810 811 813 814 815 816 818 819 820 821 822 823 824 825 825 826 826 826 826 826 825 825 825 825 824 824 823 823 822 821 820 819 818 816 814 811 809 807 806 805 805 805 805 805 804 804 804 804 804 804 805 805 805 805 804 803 802 801
753 754 757 760 763 765 768 771 774 777 780 783 785 787 789 791 793 794 795 797 798 800 801 802 803 805 807 808 809 811 812 813 814 815 817 818 819 820 821 823 823 824 824 825 825 824 824 824 824 823 823 823 823 822 822 821 820 819 817 815 813 811 808 806 804 803 803 802 803 803 802 802 802 803 803 804 804 804 804 804 804 803 801 801 800
747 750 753 756 759 762 765 768 771 774 777 781 783 786 788 790 791 793 794 796 797 797 799 800 801 803 805 806 807 809 810 811 812 814 815 816 817 818 820 821 822 822 823 823 823 823 822 822 823 823 822 822 822 821 821 820 818 816 815 812 810 808 805 803 801 801 800 800 801 801 800 800 800 802 802 803 803 803 803 804 803 802 800 799 798
744 746 749 752 755 759 762 765 769 772 776 778 781 784 786 789 790 792 793 794 795 796 797 798 799 801 803 804 805 807 808 809 811 812 813 815 816 817 818 819 820 820 821 821 821 821 821 821 822 822 822 822 821 820 819 818 816 814 812 810 808 806 803 800 799 798 797 798 799 798 797 797 799 800 801 801 801 802 802 802 802 800 799 798 797
741 744 747 750 753 757 760 764 767 770 774 777 780 782 784 787 789 791 793 793 794 795 796 796 797 799 800 802 804 805 806 807 809 810 811 813 814 815 816 817 818 818 818 819 819 819 819 820 820 821 821 821 820 819 818 816 815 812 810 807 805 803 801 798 797 796 796 797 797 796 796 796 797 798 799 799 800 800 800 800 800 798 797 796 795
738 741 744 747 750 753 757 761 763 766 770 774 777 779 782 784 787 789 790 791 792 793 794 794 795 797 798 800 801 802 804 805 806 808 809 811 812 813 814 815 816 816 816 816 817 817 818 818 819 819 819 819 819 818 818 816 813 810 808 805 803 801 799 796 796 796 796 796 796 795 794 795 796 796 797 798 798 798 798 798 797 797 796 795 794
735 738 740 743 745 748 751 755 759 762 765 768 771 773 776 778 781 783 785 787 789 790 792 793 793 794 796 798 799 800 802 803 804 806 808 809 810 811 812 813 814 814 815 815 815 815 816 816 816 817 816 816 816 817 817 815 812 808 804 801 799 799 798 795 795 795 795 795 795 794 794 794 794 795 795 796 796 796 796 796 795 795 794 793 792
731 733 735 738 741 744 746 750 754 757 760 763 766 769 770 772 774 777 781 784 785 787 788 789 791 792 794 796 797 798 800 801 802 803 805 807 808 809 810 811 812 812 813 813 813 813 814 814 814 815 815 815 815 816 817 815 813 811 806 801 796 795 795 795 795 795 794 794 793 793 794 794 794 795 795 794 793 793 793 794 794 793 793 792 790
726 730 732 735 739 741 744 748 751 754 757 760 763 766 768 771 773 775 778 781 783 785 786 787 789 791 792 794 795 796 798 799 800 801 803 804 805 806 808 809 810 810 811 811 811 811 812 812 812 813 814 815 815 815 816 816 815 814 812 807 802 798 794 793 794 795 794 792 792 793 793 793 793 793 792 791 790 790 791 791 792 791 790 789 788
725 728 730 733 736 739 742 746 749 751 754 758 761 764 767 771 773 776 778 780 782 784 786 787 788 789 791 792 793 794 795 796 798 799 800 801 802 804 805 807 808 809 809 809 809 809 810 810 811 812 813 814 815 816 816 817 816 815 815 813 811 808 801 795 794 792 793 793 792 793 793 792 793 792 790 788 787 788 788 789 789 789 789 787 786
721 723 726 729 732 736 739 742 746 748 751 754 758 762 765 769 772 775 778 779 781 782 783 784 785 786 787 788 789 791 792 793 795 796 798 799 800 801 803 804 806 807 807 807 807 807 808 809 810 811 813 814 815 816 815 816 816 816 817 816 814 813 808 805 801 792 790 792 791 792 793 793 792 791 789 787 787 787 787 788 788 787 786 785 784
717 718 721 724 728 732 736 739 743 745 749 752 755 759 761 764 766 768 770 772 775 775 774 775 777 779 781 783 786 787 789 790 792 794 795 796 797 799 801 802 803 804 805 805 805 805 806 808 809 810 812 814 814 815 814 814 815 815 817 817 816 815 812 812 810 798 791 790 790 790 791 792 791 790 788 786 785 785 785 786 786 785 784 782 781
713 716 720 723 726 729 732 736 739 742 746 749 753 755 757 759 760 761 762 764 765 766 768 770 772 775 778 780 783 784 786 787 789 791 792 794 795 796 798 800 801 802 802 803 803 803 805 806 808 809 811 813 813 813 812 813 814 814 815 816 815 815 814 813 812 807 798 791 790 791 789 789 789 787 786 784 783 782 782 783 783 781 781 780 778
711 715 718 721 723 727 730 734 737 740 743 746 749 751 752 754 756 758 760 760 760 762 765 769 771 773 775 777 779 781 782 784 786 788 789 791 793 794 796 797 798 800 800 800 801 801 803 805 806 808 810 811 812 812 812 812 813 813 813 814 813 813 813 812 810 810 805 795 790 790 789 787 787 785 782 781 780 779 779 778 779 778 776 775 774
710 713 714 718 721 725 729 732 735 737 740 743 745 747 748 750 753 755 756 757 759 761 763 766 769 771 773 775 777 778 779 781 783 785 787 788 790 792 793 795 796 797 798 798 799 799 801 803 805 807 809 810 811 811 811 811 812 812 812 813 812 811 810 809 807 807 806 799 789 787 788 785 783 781 779 777 776 776 776 775 774 774 773 771 770
710 712 714 717 720 723 727 729 731 734 736 739 740 743 745 747 749 749 751 753 756 759 762 764 766 768 771 772 774 776 777 779 781 783 784 786 788 790 791 793 794 795 796 796 797 798 800 801 803 806 807 808 809 809 810 810 811 812 813 812 811 811 809 807 806 804 804 800 791 786 786 784 779 776 775 773 772 772 771 771 771 770 769 768 767
710 713 714 716 718 720 724 726 728 731 733 736 737 739 741 742 743 744 746 748 751 754 756 759 761 764 766 768 770 773 775 776 778 780 782 783 786 788 789 791 792 793 794 794 795 796 798 800 802 804 806 807 807 808 808 809 810 811 812 812 811 811 809 807 805 804 802 800 794 786 783 781 775 771 772 770 770 770 769 768 768 766 765 764 763